Location: Ferchesar
(52.6477°N, 12.4298°E)
Time: 01:29:37
(UTC+01:00)

Transit 2A Rocket - Pass Details

Date: 16 December 2021
Orbit: 584 x 918 km, 66.7° (Epoch: 21 January)

Event Time Altitude Azimuth Distance (km) Brightness Sun altitude
Exits shadow 05:44:22 22° 225° (SW) 1,821 6.6 -21.5°
Maximum altitude 05:48:20 81° 311° (NW) 921 5.2 -20.9°
Drops below altitude 10° 05:54:31 10° 39° (NE) 2,622 8.1 -20.0°
Sets 05:57:05 0° 41° (NE) 3,565 8.8 -19.6°
